Погода в Лунинце

Беларусь     52°14′44″N   26°48′03″E
темп.,
°C
ветер,
м/с
пор.,
м/с
влажн.,
%
обл.,
%
осадки,
мм/ч
давл.,
гПа
погр.,
м
18 апреля, вс
вс1800:00+6юз0179100 0.0 101910
03:00+6сз2381100 0.0 101938
06:00+6сз3588100 0.0 1018108
09:00+7зсз249159 0.0 1018165
12:00+13ссв347272 0.1 1017935
15:00+14св466988 0.8 1017933
18:00+12всв5877100 0.3 1018603
21:00+9всв59795 0.3 1020399
19 апреля, пн
пн1900:00+8всв388224 0.0 1020296
03:00+5всв35914 0.0 102198
06:00+4св35925 0.0 102095
09:00+8св477986 0.0 1020436
12:00+8всв5769100 0.0 10201099
15:00+10в466890 0.1 10201058
18:00+10всв5868100 0.1 1019683
21:00+8св3879100 0.1 1019270
20 апреля, вт
вт2000:00+7св4885100 0.2 1018261
03:00+7св4891100 0.4 1017319
06:00+4св499717 0.0 1017267
09:00+7всв468583 0.0 1016627
12:00+7св5681100 0.5 1016665
15:00+7св5671100 0.5 1015772
18:00+8с466696 0.0 1013948
21:00+7с3675100 0.1 1013257
21 апреля, ср
ср2100:00+6ссз237985 0.0 101291
03:00+3ссз33915 0.0 101240
06:00+2зсз349349 0.0 101266
09:00+7з467617 0.1 1012432
12:00+11зюз566292 0.4 10111263
15:00+13з565395 0.6 10101770
18:00+12зюз4657100 0.2 10101400
21:00+8з227464 0.5 101117
22 апреля, чт
чт2200:00+6юз34835 0.0 101255
03:00+5юз37905 0.0 1012114
06:00+4ююз36927 0.0 1012112
09:00+9ююз577479 0.0 1012353
12:00+11юз6873100 0.3 10121039
15:00+8зюз4793100 1.7 1013509
18:00+9юз3675100 0.6 1014835
21:00+7юз3783100 0.8 1014170